Temperature
17 17 17 17 17 18 18 17 17 17 17 17 17 17 17 17 17 18 18 18 18 18 18 18 18 18 18 18 18 18 18 18 18 18 18 18 18 18 18 18 18 18 18
17 17 17 17 17 17 17 17 17 17 17 17 17 17 17 17 17 17 17 17 18 18 18 18 18 18 18 18 18 18 18 18 18 18 18 18 18 18 18 18 18 18 18
17 17 17 17 17 17 17 17 17 17 17 17 17 17 17 17 17 17 17 17 17 17 17 17 18 18 18 18 17 18 18 18 18 18 18 18 18 18 18 18 18 18 18
17 17 17 17 17 17 17 17 17 17 17 17 17 17 16 16 16 17 17 17 17 17 17 17 17 17 17 17 17 17 17 17 18 18 18 18 18 18 18 18 18 18 18
17 17 17 17 17 17 17 17 17 17 17 17 16 16 16 16 16 16 16 16 16 16 17 17 17 17 17 17 17 17 17 17 17 17 17 17 17 17 17 18 18 18 18
17 17 17 16 16 17 17 17 17 16 16 16 16 16 16 16 16 16 16 16 16 16 16 16 16 17 17 17 17 17 17 17 17 17 17 17 17 17 17 17 17 17 17
17 17 16 16 16 16 16 16 16 16 16 16 16 16 16 16 16 16 16 15 15 16 16 16 16 16 16 17 17 17 17 17 17 17 17 17 17 17 17 17 17 17 17
17 16 16 16 16 16 16 16 16 16 16 15 15 15 15 15 15 15 15 15 15 15 16 16 16 16 16 16 16 17 17 17 17 17 17 17 17 17 17 17 17 17 17
16 16 16 16 16 16 16 16 16 15 15 15 15 15 15 15 15 15 15 15 15 15 16 16 16 16 16 16 16 16 16 17 17 17 17 17 17 17 17 17 17 17 17
16 16 16 16 16 16 16 15 15 15 15 15 15 15 15 15 15 15 15 15 15 15 15 15 16 16 16 16 16 16 16 16 16 17 17 17 16 16 17 17 17 17 17
16 16 16 16 16 16 16 16 15 15 15 15 15 15 15 15 15 15 15 15 15 15 15 15 15 16 16 16 16 16 16 16 16 16 16 16 16 16 16 17 17 17 17
17 16 16 16 16 16 16 16 16 16 16 15 15 15 15 15 15 15 15 15 15 15 15 15 15 16 16 16 16 16 16 16 16 16 16 16 16 16 16 16 16 16 16
17 16 16 16 16 16 16 16 16 16 16 16 15 15 15 15 15 15 15 15 15 15 15 15 16 16 16 16 16 16 16 16 16 16 16 16 16 16 16 16 16 16 16
17 17 16 16 16 16 16 16 16 16 16 16 15 15 15 15 15 15 15 15 15 15 15 16 16 16 16 16 16 16 16 16 16 16 16 16 16 16 16 16 16 16 16
17 17 16 16 16 16 16 16 16 16 16 16 15 15 15 15 15 15 15 15 15 15 15 15 16 16 16 16 16 16 16 16 16 16 15 15 15 16 16 16 16 16 16
17 17 16 16 16 16 16 16 16 16 16 16 16 16 16 15 15 15 15 15 15 15 16 16 16 16 15 15 15 15 15 15 15 15 15 15 15 15 15 16 16 16 16
17 17 17 16 16 16 16 16 16 16 16 16 16 16 16 16 15 15 15 15 15 16 16 16 16 15 15 15 15 15 15 15 15 15 15 15 15 15 15 15 15 15 15
17 17 17 16 16 16 16 16 16 16 16 16 16 16 16 16 16 16 15 15 15 15 15 15 15 15 15 15 15 15 15 15 15 14 15 15 15 15 15 15 15 15 15
17 17 17 16 16 16 16 16 16 16 16 16 16 16 16 16 16 16 15 15 15 15 15 15 15 15 15 15 15 15 15 14 14 14 14 14 14 14 15 15 15 15 15
17 17 17 16 16 16 16 16 16 16 16 15 16 16 16 16 16 16 16 15 15 15 15 15 15 15 15 15 15 15 14 14 14 14 14 14 14 14 14 14 15 15 15
17 17 17 17 16 16 16 16 16 15 15 15 15 16 16 15 15 15 15 15 15 15 15 15 15 15 15 15 15 14 14 14 14 14 14 14 14 14 14 14 14 15 15
17 17 17 17 16 16 16 16 16 15 15 15 15 15 15 15 15 15 15 15 15 15 15 15 15 15 15 15 15 15 14 14 14 14 14 14 14 14 14 14 14 14 14
17 17 17 17 16 16 16 16 15 15 15 15 15 15 15 15 15 15 15 15 15 15 15 15 15 15 15 15 15 15 15 14 14 13 13 13 13 13 13 13 14 14 14
18 17 17 17 17 16 16 16 16 15 15 15 15 15 15 15 15 15 15 15 15 15 15 15 15 15 15 15 15 15 15 15 14 14 13 13 13 13 13 13 14 14 14
18 17 17 17 17 16 16 16 16 15 15 15 15 15 15 15 15 15 15 15 15 15 15 15 15 15 15 15 15 15 15 15 14 14 13 13 13 13 13 13 13 13 13
18 17 17 17 17 16 16 16 16 16 15 15 15 15 15 15 15 15 15 15 15 15 15 15 15 15 15 15 15 15 15 15 15 14 14 13 13 13 13 13 13 13 13
Wind_Speed
2 2 2 6 8 9 9 9 10 10 11 12 12 12 12 12 12 11 11 12 12 11 11 11 11 11 11 10 10 9 9 8 8 8 8 8 7 7 7 6 6 5 6
1 3 5 7 8 9 9 10 10 10 11 11 11 11 11 11 11 11 10 11 11 11 10 10 10 10 10 10 10 10 9 8 8 8 8 8 7 7 7 7 7 6 6
3 5 6 7 8 8 9 10 10 11 11 10 10 10 10 10 9 9 9 10 10 10 9 9 9 9 9 9 9 9 8 7 8 8 8 7 6 7 7 7 7 7 6
4 5 6 9 9 9 10 11 11 11 10 10 10 9 9 8 8 8 8 8 8 9 8 8 8 9 9 9 9 8 7 7 8 8 7 7 6 6 7 7 7 7 6
4 5 6 9 9 9 10 10 10 10 10 9 9 9 8 7 7 7 7 7 7 7 7 8 7 8 8 8 8 8 7 7 8 8 7 7 6 6 6 7 7 7 6
4 5 7 9 9 9 9 9 9 10 9 9 8 8 7 7 7 7 7 6 6 6 7 7 7 7 7 8 7 7 7 8 8 7 6 6 5 5 6 7 7 7 6
4 4 6 8 8 9 10 9 9 9 9 8 7 7 7 7 6 6 6 6 6 6 6 6 6 6 7 7 7 7 7 8 8 6 6 5 5 6 6 7 7 7 7
4 4 5 7 8 8 9 9 8 8 8 8 7 7 6 6 6 5 5 5 5 6 6 6 6 6 6 6 6 7 7 7 6 6 5 5 5 6 6 7 7 8 8
4 4 5 5 6 6 7 7 7 7 7 7 7 6 6 6 6 5 5 5 5 5 6 6 6 6 6 6 6 7 8 9 7 5 5 5 5 6 7 7 7 7 8
3 3 3 5 6 6 6 6 6 6 6 6 6 6 6 6 5 5 4 4 4 5 5 5 6 6 6 7 7 8 9 8 7 6 5 5 6 7 8 8 8 8 8
2 2 2 3 4 4 4 5 6 6 7 7 6 6 6 6 6 5 4 3 4 5 4 5 5 6 7 8 8 9 9 8 7 6 5 6 7 8 9 9 8 9 9
1 1 1 1 2 3 4 4 5 5 6 6 5 5 5 5 5 5 6 6 6 6 5 6 6 7 7 7 8 9 8 8 8 7 7 7 8 8 9 9 9 9 10
2 1 0 0 1 2 3 3 3 4 4 4 5 4 4 5 5 6 6 7 8 7 7 7 7 7 7 7 7 7 8 8 7 8 8 9 8 8 9 9 9 10 10
2 2 1 0 1 1 2 2 3 3 3 3 3 3 3 3 3 4 4 5 6 5 6 6 5 7 8 8 8 7 8 7 8 8 9 11 10 10 10 9 9 10 10
2 2 1 1 1 1 2 2 3 2 2 2 3 3 3 3 2 3 3 5 5 5 5 5 5 6 7 8 8 8 7 8 9 9 9 12 13 13 11 11 11 11 11
3 3 1 1 2 3 2 2 2 2 2 3 3 2 3 3 3 3 3 4 4 5 6 6 6 6 6 6 7 7 8 8 9 9 10 11 14 14 13 13 12 12 12
3 3 3 3 3 4 3 3 3 2 3 3 3 3 4 4 4 4 3 3 4 6 8 7 7 7 6 6 6 7 7 8 9 9 10 11 12 14 15 14 14 14 13
4 4 3 3 4 4 3 3 3 4 5 4 4 4 5 5 6 6 4 3 4 7 6 5 5 6 6 5 5 5 6 7 8 9 10 11 11 11 13 15 16 16 15
5 5 4 5 5 4 4 4 5 5 5 5 5 5 5 5 6 6 4 4 6 6 4 5 4 4 5 6 6 6 6 6 6 8 9 10 11 11 11 13 16 16 16
5 6 6 5 5 5 4 4 4 4 4 5 5 5 5 5 6 7 6 5 6 5 4 5 5 5 4 5 7 7 6 5 6 7 7 8 10 11 12 13 13 13 16
5 6 6 6 4 4 3 3 2 2 2 3 4 6 5 5 6 6 5 5 5 4 4 5 5 6 4 3 5 5 5 6 6 6 6 7 8 10 11 12 12 12 12
6 6 6 5 5 4 3 3 2 2 2 1 2 5 6 5 5 5 5 4 4 4 5 4 4 3 2 2 3 3 3 4 5 6 5 5 6 8 9 11 12 12 12
7 7 7 6 5 4 4 3 3 3 3 3 3 3 5 5 6 6 6 5 4 4 4 3 4 4 3 2 2 3 3 2 1 4 5 5 5 6 6 8 11 12 12
8 7 6 6 5 4 5 5 4 3 2 1 1 2 4 6 6 6 6 6 5 3 4 3 3 3 4 2 2 2 2 3 3 1 3 4 5 6 6 7 9 11 12
8 7 7 6 5 4 5 6 5 4 2 1 2 3 4 4 5 5 6 5 4 3 3 3 3 3 2 3 3 2 3 3 3 3 1 2 3 4 5 6 7 9 11
6 6 7 7 5 4 5 5 6 6 4 3 2 2 2 2 3 4 5 5 4 3 3 3 3 4 3 3 3 2 3 3 3 3 3 1 1 3 3 5 6 7 9
Wind_Direction
324 324 94 107 105 103 102 102 103 107 108 108 108 108 107 108 106 103 101 100 98 95 92 93 93 95 96 94 92 90 88 87 87 86 84 79 75 75 78 78 73 70 79
343 45 88 100 102 105 104 99 97 98 100 104 105 105 105 106 106 104 103 100 99 98 95 91 90 92 93 92 89 86 83 83 83 80 77 69 69 74 75 71 72 76 75
67 63 87 97 100 101 104 100 96 95 94 97 103 104 103 104 104 103 102 100 99 99 96 92 89 90 90 86 81 79 78 80 80 78 69 55 56 68 67 66 68 69 70
81 76 92 97 98 98 101 102 100 100 98 99 102 102 101 101 102 99 100 101 100 99 96 91 90 87 84 81 74 72 72 76 77 72 59 45 45 62 62 59 61 61 61
70 78 95 100 99 98 97 99 99 99 99 99 101 101 99 100 103 104 102 104 102 100 95 90 89 89 85 78 72 69 74 81 78 68 58 47 43 56 62 58 57 57 56
70 82 96 97 95 94 96 98 98 98 98 99 99 100 99 98 105 105 105 105 103 100 96 87 85 87 83 79 74 72 79 83 77 67 56 50 45 52 60 59 56 53 49
81 79 94 100 94 94 94 94 95 96 95 92 92 96 98 95 96 99 100 99 100 99 95 86 83 84 81 78 73 74 78 82 80 69 57 50 50 55 59 57 51 46 41
88 71 76 96 96 93 92 91 90 90 91 91 87 89 91 91 92 95 98 96 97 98 95 87 80 79 77 73 69 74 76 77 75 65 58 47 54 59 59 53 49 42 36
77 68 51 55 67 75 79 81 84 83 83 85 86 86 84 84 85 89 95 101 102 98 93 87 82 77 76 76 72 74 78 75 73 59 53 44 51 60 59 51 45 41 38
57 50 41 42 47 44 45 62 70 71 71 78 78 76 75 70 67 68 69 83 95 93 92 91 87 84 81 78 71 70 75 71 64 53 44 45 55 59 57 50 46 45 42
65 34 30 27 35 33 25 42 48 54 56 56 56 60 56 46 41 38 40 66 91 93 87 86 88 88 81 73 70 74 73 67 59 50 43 50 55 56 54 50 49 46 43
188 299 -0 2 9 15 17 35 34 42 47 46 44 45 46 42 36 36 38 48 66 72 70 72 79 79 78 71 69 75 72 64 55 46 43 52 54 55 55 50 49 45 42
200 244 241 59 2 22 23 26 32 39 42 42 44 49 51 49 44 42 43 42 48 53 53 57 67 75 78 80 79 75 67 63 52 44 42 49 52 53 54 52 50 46 44
184 222 260 153 84 43 47 53 52 42 40 38 39 54 69 62 47 45 51 47 48 51 56 61 71 77 79 83 85 77 70 66 56 44 42 46 47 49 52 50 48 44 42
187 209 225 151 123 86 57 51 68 49 46 39 39 52 88 91 73 66 56 54 55 63 70 74 76 79 79 79 79 78 73 69 60 50 42 44 44 44 46 47 45 43 42
189 189 168 131 132 112 84 77 75 61 54 62 58 64 88 98 96 84 66 57 57 68 78 82 81 82 77 78 71 69 71 67 60 53 47 43 44 44 45 45 44 42 42
175 155 148 141 117 106 93 87 87 75 74 76 75 75 88 101 109 102 87 69 66 80 85 83 76 77 77 73 64 62 64 62 59 52 49 45 40 41 43 42 42 41 40
153 148 156 134 113 102 94 90 80 68 66 59 66 76 89 103 116 111 101 87 89 91 89 84 75 75 70 70 64 54 54 55 53 53 52 48 43 40 39 41 42 41 40
160 147 134 121 116 108 94 83 76 69 61 53 59 68 82 100 115 115 109 101 101 91 83 91 76 85 86 83 76 58 49 48 43 52 51 47 43 42 40 37 38 38 38
146 135 133 123 115 108 92 76 60 53 45 46 50 60 82 100 110 111 107 101 102 92 81 88 91 76 81 87 83 66 52 48 48 45 45 46 43 43 42 40 36 32 33
137 139 146 137 135 123 103 95 82 59 27 28 36 50 70 96 109 114 111 104 103 101 106 107 101 89 76 78 86 66 43 44 50 39 42 47 42 40 42 40 36 32 28
164 163 156 152 150 139 123 119 116 110 73 44 27 42 49 76 105 118 114 111 110 109 104 107 114 108 83 58 103 96 53 19 25 30 33 41 35 36 39 38 36 32 29
177 178 171 167 157 145 132 109 83 60 43 32 25 21 21 55 86 108 117 115 113 118 129 131 127 125 126 61 73 130 133 163 14 10 28 34 31 32 28 32 32 29 27
189 178 167 164 156 150 145 136 130 124 113 36 18 35 32 49 74 98 110 113 114 116 127 141 127 121 132 128 75 66 106 140 135 67 7 16 29 33 22 26 25 26 26
180 171 167 159 153 149 148 145 134 124 127 91 61 66 52 42 59 84 99 108 112 110 118 123 119 116 126 142 142 126 92 74 88 125 100 358 11 14 18 20 22 21 23
169 164 160 157 156 154 151 146 146 145 142 124 94 81 59 45 46 67 88 94 104 108 113 119 117 119 120 120 126 133 143 139 141 131 135 103 12 348 3 15 17 14 22
Height
1525 1525 1525 1525 1525 1525 1525 1526 1526 1527 1527 1528 1529 1530 1530 1531 1532 1533 1534 1534 1535 1536 1537 1538 1538 1539 1540 1540 1541 1541 1542 1542 1543 1543 1543 1543 1543 1543 1543 1543 1543 1543 1543
1526 1525 1525 1525 1526 1526 1526 1527 1527 1528 1528 1529 1530 1530 1531 1532 1533 1534 1535 1535 1536 1537 1538 1539 1539 1540 1541 1542 1542 1543 1543 1543 1544 1544 1544 1544 1544 1544 1544 1544 1544 1544 1544
1526 1526 1526 1526 1527 1527 1527 1527 1528 1528 1529 1530 1530 1531 1532 1533 1534 1535 1536 1536 1537 1538 1539 1539 1540 1541 1542 1543 1543 1544 1544 1544 1545 1545 1545 1545 1545 1545 1545 1545 1545 1545 1544
1527 1527 1527 1528 1528 1528 1528 1529 1529 1529 1530 1531 1531 1532 1532 1533 1535 1535 1536 1537 1538 1539 1539 1540 1541 1542 1543 1543 1544 1545 1545 1546 1546 1546 1546 1546 1546 1546 1546 1546 1546 1545 1545
1529 1529 1529 1529 1529 1529 1530 1530 1530 1531 1531 1531 1532 1532 1533 1534 1535 1536 1537 1538 1539 1540 1540 1541 1542 1543 1544 1544 1545 1546 1546 1547 1547 1547 1547 1547 1547 1547 1547 1547 1546 1546 1546
1531 1530 1530 1530 1531 1531 1531 1531 1532 1532 1532 1533 1533 1533 1534 1535 1536 1536 1537 1538 1539 1540 1541 1542 1543 1544 1545 1545 1546 1547 1547 1548 1548 1548 1548 1548 1548 1548 1548 1547 1547 1547 1547
1532 1532 1532 1532 1533 1533 1533 1533 1533 1534 1534 1534 1534 1535 1535 1536 1537 1537 1538 1539 1540 1541 1541 1542 1543 1544 1545 1546 1547 1548 1548 1549 1549 1549 1549 1549 1549 1549 1548 1548 1548 1548 1547
1534 1534 1534 1534 1535 1535 1535 1535 1535 1536 1536 1536 1536 1536 1536 1537 1538 1538 1539 1540 1541 1541 1542 1543 1544 1545 1546 1547 1548 1549 1549 1550 1550 1550 1550 1550 1550 1550 1549 1549 1549 1548 1548
1536 1536 1536 1537 1537 1537 1537 1537 1537 1537 1538 1538 1537 1538 1538 1538 1539 1539 1540 1541 1541 1542 1543 1544 1545 1546 1546 1548 1549 1549 1550 1551 1551 1552 1551 1551 1551 1550 1550 1550 1549 1549 1548
1538 1538 1538 1539 1539 1539 1539 1539 1539 1539 1540 1540 1540 1540 1540 1540 1540 1541 1541 1542 1542 1543 1544 1545 1546 1546 1547 1548 1549 1550 1551 1552 1552 1552 1552 1552 1552 1551 1551 1550 1550 1549 1548
1540 1540 1541 1541 1541 1541 1542 1542 1542 1542 1542 1542 1542 1541 1542 1542 1542 1542 1543 1543 1544 1544 1545 1546 1546 1547 1548 1549 1550 1551 1552 1553 1553 1553 1553 1553 1553 1552 1552 1551 1550 1550 1549
1541 1542 1543 1543 1543 1543 1544 1544 1544 1544 1544 1544 1544 1544 1544 1544 1544 1544 1544 1545 1545 1546 1546 1547 1547 1548 1549 1550 1551 1552 1553 1554 1554 1554 1554 1554 1553 1553 1552 1552 1551 1550 1550
1543 1543 1544 1544 1545 1545 1545 1545 1545 1546 1546 1546 1546 1546 1545 1546 1546 1546 1546 1546 1547 1547 1548 1548 1549 1550 1550 1551 1553 1554 1555 1555 1556 1555 1555 1555 1554 1554 1553 1553 1552 1551 1550
1544 1544 1545 1546 1546 1546 1547 1547 1547 1547 1547 1547 1547 1547 1547 1548 1548 1548 1548 1548 1548 1549 1549 1550 1550 1551 1552 1553 1554 1555 1556 1556 1557 1557 1556 1556 1555 1554 1554 1553 1552 1552 1551
1544 1545 1546 1546 1547 1548 1548 1548 1548 1549 1549 1549 1549 1549 1549 1549 1550 1550 1550 1550 1550 1551 1551 1551 1552 1553 1554 1554 1555 1557 1557 1558 1558 1557 1557 1556 1555 1555 1554 1553 1553 1552 1551
1545 1546 1547 1547 1548 1549 1549 1549 1550 1550 1550 1550 1551 1551 1551 1551 1551 1551 1552 1552 1552 1552 1553 1553 1554 1555 1555 1556 1557 1558 1559 1559 1559 1559 1558 1557 1556 1556 1555 1554 1553 1552 1551
1545 1546 1547 1548 1549 1549 1550 1550 1551 1551 1551 1552 1552 1552 1553 1553 1553 1553 1553 1554 1554 1555 1555 1555 1556 1557 1557 1558 1559 1560 1560 1560 1560 1560 1559 1559 1558 1557 1556 1555 1554 1553 1552
1546 1547 1548 1549 1550 1550 1551 1552 1552 1553 1553 1553 1553 1554 1554 1554 1555 1555 1555 1555 1556 1556 1557 1557 1558 1558 1559 1560 1561 1561 1562 1562 1561 1561 1560 1560 1559 1558 1557 1556 1554 1553 1552
1546 1548 1549 1550 1550 1551 1552 1553 1553 1554 1554 1554 1555 1555 1555 1556 1556 1556 1557 1557 1557 1558 1559 1559 1560 1560 1561 1561 1562 1563 1563 1563 1563 1562 1562 1561 1560 1559 1558 1556 1555 1554 1553
1547 1548 1549 1550 1551 1552 1553 1554 1554 1555 1555 1555 1556 1556 1556 1556 1557 1557 1558 1558 1559 1560 1560 1561 1561 1562 1563 1563 1564 1564 1565 1565 1565 1564 1563 1562 1562 1560 1559 1558 1557 1555 1554
1547 1548 1550 1551 1552 1553 1554 1554 1555 1556 1556 1556 1557 1557 1557 1557 1558 1558 1559 1559 1560 1561 1562 1562 1563 1563 1564 1565 1565 1566 1566 1567 1566 1565 1565 1564 1563 1562 1561 1559 1558 1556 1555
1546 1548 1550 1551 1553 1554 1554 1555 1556 1556 1557 1557 1558 1558 1558 1558 1559 1559 1560 1560 1561 1562 1563 1563 1564 1565 1565 1566 1567 1567 1568 1569 1567 1567 1567 1566 1565 1564 1562 1561 1559 1558 1556
1546 1548 1550 1551 1553 1554 1555 1556 1556 1557 1558 1558 1558 1559 1559 1559 1560 1560 1560 1561 1562 1563 1564 1564 1565 1566 1566 1567 1568 1568 1568 1569 1569 1569 1568 1567 1567 1565 1564 1562 1561 1559 1558
1544 1547 1549 1551 1553 1554 1555 1556 1556 1557 1558 1558 1559 1559 1560 1560 1561 1561 1562 1562 1563 1564 1565 1565 1566 1567 1567 1568 1568 1568 1569 1569 1569 1570 1570 1569 1568 1567 1566 1564 1562 1561 1559
1543 1546 1549 1551 1553 1554 1555 1556 1557 1557 1558 1559 1559 1560 1560 1561 1562 1562 1563 1563 1564 1564 1565 1566 1566 1567 1567 1568 1568 1568 1568 1569 1569 1569 1570 1570 1569 1568 1567 1565 1564 1562 1560
1542 1545 1548 1550 1552 1553 1555 1556 1557 1557 1558 1559 1559 1560 1561 1562 1562 1563 1563 1564 1565 1565 1565 1566 1567 1567 1568 1568 1568 1569 1569 1569 1569 1569 1570 1570 1570 1569 1568 1567 1565 1564 1562